TimeEDT,TemperatureF,Dew PointF,Humidity,Sea Level PressureIn,VisibilityMPH,Wind Direction,Wind SpeedMPH,Gust SpeedMPH,PrecipitationIn,Events,Conditions,WindDirDegrees,DateUTC
12:55 AM,68.0,61.7,80,29.99,10.0,South,5.8,-,N/A,,Clear,190,2012-10-06 04:55:00
1:55 AM,67.8,61.2,79,29.99,10.0,Variable,5.8,-,N/A,,Clear,0,2012-10-06 05:55:00
2:55 AM,67.6,61.7,81,29.97,10.0,SSW,8.1,-,N/A,,Clear,200,2012-10-06 06:55:00
3:55 AM,66.0,62.1,87,29.96,10.0,SSW,8.1,-,N/A,,Clear,200,2012-10-06 07:55:00
4:55 AM,65.5,63.1,92,29.95,10.0,SSW,5.8,-,N/A,,Clear,200,2012-10-06 08:55:00
5:55 AM,64.8,62.1,91,29.95,10.0,SSW,5.8,-,N/A,,Clear,210,2012-10-06 09:55:00
6:55 AM,64.4,61.5,90,29.95,10.0,SSW,5.8,-,N/A,,Clear,200,2012-10-06 10:55:00
7:55 AM,65.7,61.3,86,29.95,10.0,SW,5.8,-,N/A,,Clear,220,2012-10-06 11:55:00
8:55 AM,68.2,60.4,76,29.95,10.0,SW,8.1,-,N/A,,Clear,220,2012-10-06 12:55:00
9:55 AM,71.4,61.5,71,29.94,10.0,SW,8.1,-,N/A,,Clear,220,2012-10-06 13:55:00
10:55 AM,75.4,62.2,64,29.92,10.0,SW,9.2,-,N/A,,Clear,230,2012-10-06 14:55:00
11:55 AM,77.7,63.5,61,29.90,10.0,SW,8.1,-,N/A,,Clear,220,2012-10-06 15:55:00
12:55 PM,79.7,64.2,59,29.88,10.0,SW,10.4,-,N/A,,Clear,220,2012-10-06 16:55:00
1:55 PM,81.7,63.3,54,29.86,10.0,WSW,9.2,-,N/A,,Clear,250,2012-10-06 17:55:00
2:55 PM,82.2,62.4,51,29.86,10.0,West,9.2,-,N/A,,Clear,280,2012-10-06 18:55:00
3:55 PM,82.6,62.8,51,29.86,10.0,WNW,10.4,16.1,N/A,,Partly Cloudy,290,2012-10-06 19:55:00
4:55 PM,79.0,64.8,62,29.86,10.0,WNW,9.2,-,N/A,,Scattered Clouds,290,2012-10-06 20:55:00
5:55 PM,77.7,64.4,63,29.87,10.0,WNW,4.6,-,N/A,,Scattered Clouds,290,2012-10-06 21:55:00
6:55 PM,75.4,65.7,72,29.89,10.0,Calm,Calm,-,N/A,,Overcast,0,2012-10-06 22:55:00
7:55 PM,69.8,60.1,71,29.93,10.0,NNE,11.5,-,N/A,,Scattered Clouds,20,2012-10-06 23:55:00
8:55 PM,68.5,55.0,62,29.97,10.0,NNE,9.2,-,N/A,,Overcast,20,2012-10-07 00:55:00
9:55 PM,67.5,53.2,60,29.99,10.0,North,10.4,-,N/A,,Overcast,360,2012-10-07 01:55:00
10:55 PM,65.7,51.3,60,30.01,10.0,North,10.4,-,N/A,,Scattered Clouds,10,2012-10-07 02:55:00
11:55 PM,63.7,45.5,52,30.01,10.0,Variable,6.9,-,N/A,,Overcast,0,2012-10-07 03:55:00